Regional Weather Roundup
Issued by NWS

Home | Current Version | Previous Version | Graphics & Text | Print | Product List | Glossary On
Versions: 1 2 3 4 5 6 7 8 9 10 11 12 13 14 15 16 17 18 19 20 21 22 23 24 25 26 27 28 29 30 31 32 33 34 35 36 37 38 39 40 41 42 43 44 45 46 47 48 49 50
000
ASUS43 KLSX 231959
RWRMO

WEATHER SUMMARY FOR MISSOURI
NATIONAL WEATHER SERVICE SPRINGFIELD MO
300 PM CDT WED APR 23 2014

NOTE: "FAIR" INDICATES FEW OR NO CLOUDS BELOW 12,000 FEET WITH NO
       SIGNIFICANT WEATHER AND/OR OBSTRUCTIONS TO VISIBILITY.
       CURRENT SKY AND/OR WEATHER CONDITIONS ARE NOT AVAILABLE FOR
       CHILLICOTHE AND FARMINGTON.

MOZ001>031-035>038-043-044-053-054-232100-
...NORTHERN AND WESTERN MISSOURI...

CITY           SKY/WX    TMP DP  RH WIND       PRES   REMARKS
KANSAS CTY INT PTSUNNY   72  40  31 SE20G28   29.84S
KANSAS C DTWN  MOSUNNY   73  40  30 SE21G29   29.84S
LEE`S SUMMIT   MOSUNNY   70  41  34 SE16G25   29.86F
ST JOSEPH      CLOUDY    67  41  38 SE12      29.84S
CHILLICOTHE      N/A     64  39  39 SE15G25   29.92F

$$
MOZ066>068-077>081-088>096-101>105-232100-
...SOUTHWEST MISSOURI...

CITY           SKY/WX    TMP DP  RH WIND       PRES   REMARKS
SPRINGFIELD    MOSUNNY   76  43  30 S16G23    29.91F
JOPLIN         SUNNY     80  46  30 S14       29.85F

$$
MOZ032>034-039>042-045>050-055>058-069>072-232100-
...CENTRAL MISSOURI...

CITY           SKY/WX    TMP DP  RH WIND       PRES   REMARKS
COLUMBIA       PTSUNNY   65  38  36 SE9G20    29.97F
JEFFERSON CITY CLOUDY    67  34  29 E14       29.97F
ROLLA          PTSUNNY   67  33  28 E8        29.97F
SEDALIA        MOSUNNY   69  39  33 SE21      29.93F
OSAGE BEACH    CLOUDY    66  36  32 E8        29.95F

$$
MOZ051-052-059>065-232100-
...EAST CENTRAL MISSOURI...

CITY           SKY/WX    TMP DP  RH WIND       PRES   REMARKS
ST LOUIS INTL  PTSUNNY   65  36  34 E12       30.05F
SPIRIT OF STL  PTSUNNY   62  37  39 E9        30.03F
ST CHARLES     PTSUNNY   63  35  35 SE12      30.04F

$$
MOZ072>076-082>087-097>100-106>115-232100-
...SOUTH CENTRAL AND SOUTHEAST MISSOURI...

CITY           SKY/WX    TMP DP  RH WIND       PRES   REMARKS
CAPE GIRARDEAU SUNNY     69  39  33 VRB5      30.02F
FARMINGTON     SUNNY     68  39  34 E9        30.03F
POPLAR BLUFF   SUNNY     71  38  29 SE8       30.00F
WEST PLAINS    SUNNY     72  37  28 SE9       29.98F

$$



USA.gov is the U.S. government's official web portal to all federal, state and local government web resources and services.